JCSAT 2A                
1 27399U 02015A   19265.46131625 -.00000314  00000-0  00000+0 0  9997
2 27399   2.2829  87.2872 0006471 146.2884  69.5496  1.00269395 63957
ASTRA 3A                
1 27400U 02015B   19265.85551424 -.00000288  00000-0  00000+0 0  9996
2 27400   5.3899  64.8195 0002561 128.4109  69.1999  1.00274915 64069
ARIANE 44L R/B          
1 27402U 02015D   19265.24390421 -.00000137  00000-0 -25339-4 0  9990
2 27402   3.6008  91.4348 7072366   7.4344 359.1811  2.49932323154719